Simultaneous Nadir Overpasses (SNOs) Predictions

Prediction of SNOs between AQUA and METOP-A Satellite Orbit:

Table of predicted SNOs for the next 14.0 days since TLE Epoch: 6/23/2017
Index Date (AQUA) Time (AQUA) Lat,Lon (AQUA) SZA (AQUA ) Date (METOP-A) Time (METOP-A) Lat,Lon (METOP-A) SZA (METOP-A ) Distance(km) Time Diff (sec)
1 06/25/2017 23:01:49 73.91,-171.43 50.60 06/25/2017 23:01:05 73.91,-171.36 50.59 2.12 44
2 06/25/2017 23:51:16 -73.99, -3.96 129.32 06/25/2017 23:51:45 -73.98, -3.86 129.34 3.38 29
3 06/28/2017 18:36:01 73.90,-104.96 50.71 06/28/2017 18:35:25 73.91,-104.96 50.72 0.24 36
4 06/28/2017 19:25:28 -73.97, 62.53 129.22 06/28/2017 19:26:05 -73.98, 62.56 129.21 1.72 37
5 07/01/2017 14:10:14 73.90, -38.51 50.88 07/01/2017 14:09:46 73.90, -38.56 50.90 1.67 28
6 07/01/2017 14:59:41 -73.96, 129.00 129.05 07/01/2017 15:00:26 -73.99, 128.97 129.03 3.01 45
7 07/04/2017 08:54:47 -73.23,-138.27 129.61 07/04/2017 08:53:41 -73.21,-141.07 129.49 90.02 66
8 07/04/2017 09:44:27 73.90, 27.93 51.12 07/04/2017 09:44:07 73.90, 27.83 51.12 3.21 20
9 07/04/2017 10:33:55 -74.01,-164.66 128.77 07/04/2017 10:34:47 -73.99,-164.63 128.80 2.54 52
10 07/07/2017 04:29:05 -73.54, -72.48 128.99 07/07/2017 04:27:55 -73.51, -74.00 128.95 48.34 70
11 07/07/2017 05:18:39 73.91, 94.36 51.41 07/07/2017 05:18:26 73.94, 94.34 51.44 3.16 13
12 07/07/2017 06:08:07 -74.01, -98.22 128.48 07/07/2017 06:09:07 -73.98, -98.23 128.52 2.79 60




NCC Satellite Simultaneous Nadir Overpasses (SNOs) Prediction Service
